星链-35412(STARLINK-35412)

导读

STARLINK-35412是美国太空探索技术公司SpaceX星链星座中的一颗卫星,于2025年9月26日发射升空。星链计划旨在构建全球卫星互联网星座,为全球偏远地区、海洋、航空等场景提供高速低延迟的宽带互联网接入服务,STARLINK-35412加入后进一步拓展了星链星座的覆盖范围与服务能力。

基本信息
目录编号:
65797
目录名称:
STARLINK-35412
国际标识:
2025-218G
轨道中心:
EARTH
卫星名称:
星链-35412
卫星全名:
星链-35412(STARLINK-35412)
卫星状态:
在轨 (已飞行260 天)
发射日期:
2025-09-26 UTC
国别 :
美国 (US)
星等 :
--
轨道信息
数据来源 国际轨道数据 AOE轨道数据
星历时间 2026-06-13T12:29:12+0800
8小时前
查看轨道信息
2026-06-11T00:00:00+0800
2天前
查看轨道信息
半长轴 6927.666km 6927.654km
偏心率 0.0002434 0.0002707
轨道倾角 97.372° 97.381°
近地点辐角 87.043° 87.113°
升交点赤经 26.287° 23.877°
平近点角 273.108° 300.832°
近地点 547.842km 547.641km
远地点 551.216km 551.393km
周期 95.640分钟 95.640分钟
每日圈数 15.056444 15.056484
详细信息
固有亮度:
5
最大亮度:
2.5
卫星平台:
Starlink V1.0
覆盖范围:
全球
运营商:
太空探索技术公司
运营商所在国:
美国
制造商(研发单位):
太空探索技术公司
制造商所在国:
美国
使用方式:
暂无
卫星简介
Starlink 计划是 SpaceX 推出的全球卫星互联网项目,通过发射低轨道卫星,为全球尤其是偏远地区提供高速、低延迟的互联网服务。自 2019 年起,Starlink 已部署数千颗卫星,旨在缩小全球数字鸿沟,推动互联网普及。该项目还为军事、航空等行业提供通信支持,带来广泛经济效益。
2D轨道图
3D轨道图
轨道高度分析图
轨道倾角分析图
轨道综合分析图
查看轨道综合分析图